Location: Châteauvieux
(47.2310°N, 1.3828°E)
Time: 00:05:32
(UTC+00:00)

Cosmos 1707 - Pass Details

Date: 15 May 2026
Orbit: 332 x 335 km, 82.5° (Epoch: 9 June)

Event Time Altitude Azimuth Distance (km) Brightness Sun altitude
Exits shadow 22:27:34 48° 338° (NNW) 477 2.9 -21.1°
Drops below altitude 10° 22:29:53 10° 4° (N) 1,345 5.7 -21.3°
Sets 22:31:52 0° 7° (N) 2,197 7.0 -21.4°
